EW0415 Weather Reports


time (UTC)temp
C
wind
direction
speed
KPH
gust
KPH
rain 1hr
cm
rain 24hr
cm
rain mn
cm
humidity
%
barometer
mb
20260507140510 13 0 0.0 0.0 0.00 0.00 0.00 73 1031.9
20260507140030 13 0 0.0 0.0 0.00 0.00 0.00 73 1031.9
20260507135508 13 0 0.0 0.0 0.00 0.00 0.00 73 1031.8
20260507135011 13 0 0.0 0.0 0.00 0.00 0.00 73 1031.9
20260507134530 13 0 0.0 0.0 0.00 0.00 0.00 73 1032.0
20260507134010 13 0 0.0 0.0 0.00 0.00 0.00 73 1032.1
20260507133509 13 0 0.0 0.0 0.00 0.00 0.00 72 1032.0
20260507133031 13 0 0.0 0.0 0.00 0.00 0.00 72 1032.0
20260507132511 13 0 0.0 0.0 0.00 0.00 0.00 72 1032.1
20260507132010 13 0 0.0 0.0 0.00 0.00 0.00 72 1032.0
20260507131528 13 0 0.0 0.0 0.00 0.00 0.00 72 1031.9
20260507131014 13 0 0.0 3.2 0.00 0.00 0.00 72 1031.9
20260507130510 13 0 0.0 3.2 0.00 0.00 0.00 72 1031.9
20260507130029 13 277 0.0 3.2 0.00 0.00 0.00 72 1031.8
20260507125512 13 0 0.0 3.2 0.00 0.00 0.00 72 1031.9
20260507125008 13 0 0.0 1.6 0.00 0.00 0.00 72 1031.9
20260507124527 13 0 0.0 1.6 0.00 0.00 0.00 72 1032.1
20260507124013 13 0 0.0 0.0 0.00 0.00 0.00 72 1032.2
20260507123511 13 0 0.0 3.2 0.00 0.00 0.00 71 1032.1
20260507123026 13 0 0.0 3.2 0.00 0.00 0.00 71 1032.3
20260507122511 13 277 0.0 3.2 0.00 0.00 0.00 71 1032.3
20260507122013 13 0 0.0 3.2 0.00 0.00 0.00 71 1032.3
20260507121526 13 0 0.0 3.2 0.00 0.00 0.00 71 1032.5
20260507121010 13 0 0.0 3.2 0.00 0.00 0.00 71 1032.4
20260507120511 13 277 0.0 3.2 0.00 0.00 0.00 71 1032.3
20260507120030 13 0 0.0 3.2 0.00 0.00 0.00 71 1032.3
20260507115508 13 0 0.0 8.0 0.00 0.00 0.00 70 1032.2
20260507115015 13 278 1.6 12.9 0.00 0.00 0.00 70 1032.1
20260507114527 13 209 3.2 12.9 0.00 0.00 0.00 70 1032.1
20260507114011 13 277 3.2 12.9 0.00 0.00 0.00 69 1032.3
20260507113508 13 217 3.2 11.3 0.00 0.00 0.00 68 1032.3
20260507113028 13 218 4.8 11.3 0.00 0.00 0.00 68 1032.1
20260507112513 13 0 0.0 6.4 0.00 0.00 0.00 66 1032.1
20260507112013 13 223 0.0 3.2 0.00 0.00 0.00 66 1032.0
20260507111539 13 0 0.0 1.6 0.00 0.00 0.00 65 1032.0
20260507111011 13 0 0.0 1.6 0.00 0.00 0.00 65 1032.1
20260507110512 13 0 0.0 1.6 0.00 0.00 0.00 65 1032.1
20260507110026 13 0 0.0 3.2 0.00 0.00 0.00 65 1032.2
20260507105511 13 0 0.0 3.2 0.00 0.00 0.00 65 1032.0
20260507105012 13 0 0.0 1.6 0.00 0.00 0.00 65 1032.1
20260507104528 13 0 0.0 1.6 0.00 0.00 0.00 65 1032.1
20260507104012 13 0 0.0 4.8 0.00 0.00 0.00 65 1032.1
20260507103513 13 0 0.0 6.4 0.00 0.00 0.00 65 1032.1
20260507103035 13 223 0.0 8.0 0.00 0.00 0.00 65 1032.3
20260507102510 13 222 1.6 8.0 0.00 0.00 0.00 65 1032.1
20260507102011 13 221 0.0 6.4 0.00 0.00 0.00 65 1032.3
20260507101537 13 222 1.6 6.4 0.00 0.00 0.00 65 1032.3
20260507101009 13 0 0.0 3.2 0.00 0.00 0.00 65 1032.3
20260507100510 13 0 0.0 3.2 0.00 0.00 0.00 65 1032.3
20260507100035 13 0 0.0 1.6 0.00 0.00 0.00 65 1032.1
20260507095508 13 0 0.0 4.8 0.00 0.00 0.00 64 1032.1
20260507095011 13 0 0.0 4.8 0.00 0.00 0.00 64 1032.0
20260507094539 13 0 0.0 1.6 0.00 0.00 0.00 64 1032.0
20260507094007 13 0 0.0 1.6 0.00 0.00 0.00 64 1032.1
20260507093508 13 0 0.0 3.2 0.00 0.00 0.00 64 1032.0
20260507093034 13 0 0.0 4.8 0.00 0.00 0.00 64 1031.8
20260507092512 13 223 0.0 4.8 0.00 0.00 0.00 64 1032.0
20260507092011 13 223 0.0 4.8 0.00 0.00 0.00 64 1031.7
20260507091529 13 0 0.0 6.4 0.00 0.00 0.00 64 1031.7
20260507091014 13 0 0.0 6.4 0.00 0.00 0.00 64 1031.7
20260507090514 13 223 0.0 6.4 0.00 0.00 0.00 64 1031.7
20260507090034 13 0 0.0 6.4 0.00 0.00 0.00 64 1031.7
20260507085508 13 0 0.0 6.4 0.00 0.00 0.00 64 1031.6
20260507085009 13 225 0.0 3.2 0.00 0.00 0.00 63 1031.5
20260507084534 13 0 0.0 4.8 0.00 0.00 0.00 63 1031.6
20260507084009 13 0 0.0 4.8 0.00 0.00 0.00 63 1031.4
20260507083511 13 0 0.0 4.8 0.00 0.00 0.00 62 1031.5
20260507083026 13 0 0.0 3.2 0.00 0.00 0.00 62 1031.3
20260507082508 14 223 0.0 6.4 0.00 0.00 0.00 61 1031.2
20260507082010 14 0 0.0 6.4 0.00 0.00 0.00 61 1031.3
20260507081527 14 222 0.0 6.4 0.00 0.00 0.00 61 1031.3
20260507081010 14 219 1.6 6.4 0.00 0.00 0.00 60 1031.4
20260507080511 14 221 1.6 8.0 0.00 0.00 0.00 59 1031.4
20260507080029 14 218 1.6 8.0 0.00 0.00 0.00 59 1031.4
20260507075509 15 218 1.6 9.7 0.00 0.00 0.00 58 1031.4
20260507075011 15 217 1.6 9.7 0.00 0.00 0.00 58 1031.3
20260507074528 15 0 1.6 9.7 0.00 0.00 0.00 58 1031.5
20260507074010 15 197 3.2 9.7 0.00 0.00 0.00 58 1031.5
20260507073509 15 0 1.6 11.3 0.00 0.00 0.00 58 1031.4
20260507073027 15 198 1.6 12.9 0.00 0.00 0.00 58 1031.4
20260507072507 15 210 3.2 12.9 0.00 0.00 0.00 57 1031.3
20260507072010 15 217 4.8 11.3 0.00 0.00 0.00 56 1031.3
20260507071527 15 225 1.6 11.3 0.00 0.00 0.00 55 1031.4
20260507071013 16 219 3.2 11.3 0.00 0.00 0.00 54 1031.3
20260507070511 16 235 3.2 8.0 0.00 0.00 0.00 54 1031.4
20260507070026 16 213 1.6 12.9 0.00 0.00 0.00 55 1031.2
20260507065510 16 215 1.6 12.9 0.00 0.00 0.00 55 1031.2
20260507065008 16 264 3.2 14.5 0.00 0.00 0.00 55 1031.2
20260507064530 15 259 1.6 14.5 0.00 0.00 0.00 55 1031.2
20260507064010 15 0 1.6 11.3 0.00 0.00 0.00 55 1031.3
20260507063511 15 200 1.6 14.5 0.00 0.00 0.00 55 1031.4
20260507063029 15 193 1.6 16.1 0.00 0.00 0.00 55 1031.3
20260507062507 15 125 3.2 16.1 0.00 0.00 0.00 54 1031.2
20260507062010 15 202 3.2 16.1 0.00 0.00 0.00 55 1031.2
20260507061530 15 242 1.6 14.5 0.00 0.00 0.00 56 1031.2
20260507061007 15 0 0.0 14.5 0.00 0.00 0.00 55 1031.2
20260507060507 15 242 4.8 14.5 0.00 0.00 0.00 55 1031.3
20260507060040 15 225 3.2 11.3 0.00 0.00 0.00 55 1031.3
20260507055512 15 238 3.2 11.3 0.00 0.00 0.00 55 1031.3
20260507055012 16 0 1.6 8.0 0.00 0.00 0.00 55 1031.3
20260507054533 16 0 1.6 11.3 0.00 0.00 0.00 56 1031.3
20260507054013 16 0 1.6 11.3 0.00 0.00 0.00 56 1031.4
20260507053513 16 287 0.0 6.4 0.00 0.00 0.00 56 1031.3
20260507053028 16 293 0.0 12.9 0.00 0.00 0.00 56 1031.3
20260507052509 16 298 1.6 12.9 0.00 0.00 0.00 55 1031.3
20260507052013 16 0 1.6 8.0 0.00 0.00 0.00 54 1031.4
20260507051530 16 217 1.6 11.3 0.00 0.00 0.00 54 1031.4
20260507051009 16 242 3.2 11.3 0.00 0.00 0.00 54 1031.2
20260507050507 16 213 3.2 11.3 0.00 0.00 0.00 54 1031.1
20260507050030 16 252 3.2 12.9 0.00 0.00 0.00 52 1031.2
20260507045507 16 291 3.2 12.9 0.00 0.00 0.00 53 1031.3
20260507045007 16 272 1.6 12.9 0.00 0.00 0.00 52 1031.2
20260507044545 16 275 4.8 12.9 0.00 0.00 0.00 52 1031.2
20260507044008 17 259 4.8 11.3 0.00 0.00 0.00 51 1031.2
20260507043508 17 213 1.6 16.1 0.00 0.00 0.00 52 1031.2
20260507043028 17 202 4.8 16.1 0.00 0.00 0.00 50 1031.2
20260507042510 17 244 3.2 16.1 0.00 0.00 0.00 50 1031.2
20260507042010 17 250 1.6 16.1 0.00 0.00 0.00 52 1031.2
20260507041526 16 226 4.8 11.3 0.00 0.00 0.00 52 1031.2
20260507041008 16 265 3.2 16.1 0.00 0.00 0.00 52 1031.3
20260507040511 16 0 1.6 16.1 0.00 0.00 0.00 53 1031.4
20260507040033 16 254 1.6 8.0 0.00 0.00 0.00 54 1031.3
20260507035511 16 252 1.6 9.7 0.00 0.00 0.00 54 1031.5
20260507035010 16 261 0.0 11.3 0.00 0.00 0.00 53 1031.4
20260507034534 16 265 1.6 11.3 0.00 0.00 0.00 54 1031.5
20260507034009 16 0 0.0 11.3 0.00 0.00 0.00 54 1031.5
20260507033508 16 0 0.0 12.9 0.00 0.00 0.00 54 1031.5
20260507033032 16 167 1.6 12.9 0.00 0.00 0.00 54 1031.5
20260507032514 16 163 1.6 9.7 0.00 0.08 0.00 54 1031.6
20260507032011 16 238 1.6 8.0 0.00 0.08 0.00 54 1031.7
20260507031529 16 238 1.6 12.9 0.00 0.08 0.00 53 1031.8
20260507031012 16 173 3.2 12.9 0.00 0.08 0.00 52 1031.8
20260507030515 16 229 1.6 11.3 0.00 0.08 0.00 52 1031.7
20260507030026 16 161 1.6 11.3 0.00 0.08 0.00 53 1031.8
20260507025510 16 250 0.0 9.7 0.00 0.08 0.00 53 1031.7
20260507025009 16 257 1.6 9.7 0.00 0.08 0.00 53 1031.8
20260507024528 16 212 1.6 11.3 0.00 0.08 0.00 54 1031.9
20260507024011 16 271 1.6 12.9 0.00 0.08 0.00 54 1032.0
20260507023508 16 270 3.2 12.9 0.00 0.08 0.00 54 1032.0
20260507023028 16 244 3.2 11.3 0.00 0.08 0.00 55 1031.9
20260507022513 16 257 1.6 11.3 0.00 0.08 0.00 54 1031.8
20260507022009 16 257 1.6 11.3 0.00 0.08 0.00 54 1032.0
20260507021530 16 221 3.2 9.7 0.00 0.08 0.00 54 1032.1
20260507021014 16 0 0.0 14.5 0.00 0.08 0.00 53 1032.2
20260507020511 16 210 3.2 14.5 0.00 0.08 0.00 52 1032.4
20260507020041 16 234 3.2 14.5 0.00 0.08 0.00 52 1032.3
20260507015508 16 297 1.6 12.9 0.00 0.08 0.00 52 1032.1
20260507015011 16 269 4.8 12.9 0.00 0.08 0.00 51 1032.1
20260507014534 16 232 3.2 9.7 0.00 0.08 0.00 51 1032.1
20260507014011 16 0 1.6 9.7 0.00 0.08 0.00 51 1032.1
20260507013511 16 0 1.6 16.1 0.00 0.08 0.00 51 1032.0
20260507013030 16 281 3.2 16.1 0.00 0.08 0.00 51 1032.1
20260507012508 16 209 3.2 16.1 0.00 0.08 0.00 51 1032.1
20260507012013 16 360 1.6 12.9 0.00 0.08 0.00 52 1032.1
20260507011526 16 0 1.6 16.1 0.00 0.08 0.00 52 1032.0
20260507011010 16 165 4.8 16.1 0.00 0.08 0.00 51 1032.0
20260507010507 16 165 3.2 12.9 0.00 0.08 0.00 52 1031.9
20260507010029 16 216 1.6 11.3 0.00 0.08 0.00 54 1031.9
20260507005508 16 219 3.2 17.7 0.00 0.08 0.00 54 1031.8
20260507005011 16 242 1.6 17.7 0.00 0.08 0.00 55 1031.9
20260507004532 16 213 3.2 14.5 0.00 0.08 0.00 56 1031.9
20260507004010 15 242 1.6 14.5 0.00 0.08 0.00 57 1031.7
20260507003512 15 259 3.2 14.5 0.00 0.08 0.00 58 1031.7
20260507003029 15 229 4.8 9.7 0.00 0.08 0.00 59 1031.7
20260507002507 15 213 0.0 11.3 0.00 0.08 0.00 61 1031.8
20260507002008 15 0 1.6 11.3 0.00 0.08 0.00 62 1031.8
20260507001536 15 217 1.6 12.9 0.00 0.08 0.00 64 1031.9
20260507001009 15 261 1.6 12.9 0.00 0.08 0.00 65 1031.9
20260507000510 14 210 3.2 8.0 0.00 0.08 0.00 67 1031.9
20260507000028 14 250 1.6 14.5 0.00 0.08 0.00 67 1031.8
20260506235507 13 0 1.6 14.5 0.00 0.08 0.00 69 1031.9
20260506235008 13 261 3.2 14.5 0.00 0.08 0.00 69 1031.8
20260506234526 13 222 1.6 9.7 0.00 0.08 0.00 70 1031.8
20260506234012 13 229 0.0 8.0 0.00 0.08 0.00 71 1031.9
20260506233510 13 232 0.0 6.4 0.00 0.08 0.00 71 1031.7
20260506233030 13 0 0.0 6.4 0.00 0.08 0.00 72 1031.7
20260506232508 12 234 0.0 4.8 0.00 0.08 0.00 72 1031.6
20260506232009 12 0 0.0 8.0 0.00 0.08 0.00 73 1031.8
20260506231529 12 236 0.0 8.0 0.00 0.08 0.00 74 1031.6
20260506231007 12 236 1.6 8.0 0.00 0.08 0.00 75 1031.6
20260506230509 12 0 0.0 6.4 0.00 0.08 0.00 75 1031.5
20260506230032 11 223 0.0 3.2 0.00 0.08 0.00 76 1031.3
20260506225512 11 0 0.0 3.2 0.00 0.08 0.00 76 1031.4
20260506225012 11 0 0.0 4.8 0.00 0.08 0.00 76 1031.4
20260506224528 10 0 0.0 4.8 0.00 0.08 0.00 75 1031.3
20260506224011 10 0 0.0 4.8 0.00 0.08 0.00 75 1031.3
20260506223511 9 0 0.0 0.0 0.00 0.08 0.00 74 1031.1
20260506223030 9 0 0.0 0.0 0.00 0.08 0.00 74 1031.2
20260506222513 8 0 0.0 0.0 0.00 0.10 0.00 74 1031.1
20260506222010 8 0 0.0 0.0 0.00 0.10 0.00 73 1031.0
20260506221528 8 0 0.0 0.0 0.00 0.10 0.00 73 1030.9
20260506221011 8 0 0.0 0.0 0.00 0.10 0.00 72 1030.9
20260506220511 8 0 0.0 0.0 0.00 0.10 0.00 72 1030.8
20260506220034 8 0 0.0 0.0 0.00 0.10 0.00 72 1030.8
20260506215508 8 0 0.0 1.6 0.00 0.10 0.00 72 1030.7
20260506215009 8 0 0.0 1.6 0.00 0.10 0.00 72 1030.7
20260506214529 8 0 0.0 1.6 0.00 0.10 0.00 72 1030.8
20260506214015 8 0 0.0 0.0 0.00 0.10 0.00 72 1030.7
20260506213508 8 0 0.0 0.0 0.00 0.10 0.00 71 1030.6
20260506213030 8 0 0.0 0.0 0.00 0.10 0.00 71 1030.5
20260506212512 8 0 0.0 0.0 0.00 0.10 0.00 71 1030.3
20260506212016 8 0 0.0 0.0 0.00 0.10 0.00 71 1030.3
20260506211533 9 0 0.0 0.0 0.00 0.10 0.00 71 1030.2
20260506211013 9 0 0.0 0.0 0.00 0.10 0.00 71 1030.2
20260506210510 9 0 0.0 0.0 0.00 0.10 0.00 71 1030.2
20260506210028 9 0 0.0 0.0 0.00 0.10 0.00 71 1030.0
20260506205512 9 0 0.0 0.0 0.00 0.10 0.00 71 1029.9
20260506205014 10 0 0.0 0.0 0.00 0.10 0.00 71 1029.8
20260506204528 10 0 0.0 0.0 0.00 0.10 0.00 71 1029.7
20260506204012 10 0 0.0 0.0 0.00 0.10 0.00 71 1029.6
20260506203513 10 0 0.0 0.0 0.00 0.10 0.00 71 1029.6
20260506203033 10 0 0.0 0.0 0.00 0.10 0.00 71 1029.6
20260506202510 10 0 0.0 0.0 0.00 0.10 0.00 71 1029.6
20260506202016 10 0 0.0 0.0 0.00 0.10 0.00 71 1029.6
20260506201528 10 0 0.0 0.0 0.00 0.10 0.00 71 1029.5
20260506201010 10 0 0.0 1.6 0.00 0.10 0.00 71 1029.6
20260506200515 10 0 0.0 3.2 0.00 0.10 0.00 71 1029.4
20260506200032 10 0 0.0 3.2 0.00 0.10 0.00 71 1029.5
20260506195511 10 0 0.0 3.2 0.00 0.10 0.00 71 1029.5
20260506195011 10 0 0.0 3.2 0.00 0.10 0.00 70 1029.4
20260506194530 10 0 0.0 3.2 0.00 0.10 0.00 70 1029.2
20260506194010 10 0 0.0 0.0 0.00 0.10 0.00 70 1029.2
20260506193512 10 0 0.0 0.0 0.00 0.10 0.00 69 1029.2
20260506193029 11 0 0.0 0.0 0.00 0.10 0.00 69 1029.2
20260506192512 11 0 0.0 3.2 0.00 0.10 0.00 69 1029.2
20260506192011 11 0 0.0 3.2 0.00 0.10 0.00 69 1029.1
20260506191534 11 224 0.0 3.2 0.00 0.10 0.00 69 1029.2
20260506191010 11 0 0.0 0.0 0.00 0.10 0.00 69 1029.1
20260506190511 11 0 0.0 4.8 0.00 0.10 0.00 69 1029.0
20260506190028 11 0 0.0 4.8 0.00 0.10 0.00 70 1028.8
20260506185510 11 0 0.0 4.8 0.00 0.10 0.00 70 1028.7
20260506185016 11 0 0.0 8.0 0.00 0.10 0.00 70 1028.7
20260506184531 11 0 1.6 8.0 0.00 0.10 0.00 70 1028.6
20260506184011 11 0 0.0 8.0 0.00 0.10 0.00 70 1028.8
20260506183511 11 0 1.6 8.0 0.00 0.10 0.00 70 1028.8
20260506183028 11 0 0.0 8.0 0.00 0.10 0.00 70 1028.7
20260506182511 11 237 0.0 8.0 0.00 0.10 0.00 70 1028.7
20260506182012 11 246 0.0 3.2 0.00 0.10 0.00 70 1028.6
20260506181534 11 248 0.0 6.4 0.00 0.10 0.00 69 1028.5
20260506181012 11 0 0.0 6.4 0.00 0.10 0.00 69 1028.6
20260506180509 11 0 0.0 4.8 0.00 0.10 0.00 69 1028.6
20260506180031 11 0 0.0 6.4 0.00 0.10 0.00 69 1028.4
20260506175514 11 248 0.0 6.4 0.00 0.10 0.00 69 1028.6
20260506175012 11 0 0.0 4.8 0.00 0.10 0.00 69 1028.6
20260506174532 11 0 0.0 4.8 0.00 0.10 0.00 69 1028.7
20260506174011 11 0 0.0 0.0 0.00 0.10 0.00 68 1028.6
20260506173509 11 0 0.0 0.0 0.00 0.10 0.00 68 1028.6
20260506173031 11 0 0.0 0.0 0.00 0.10 0.00 67 1028.7
20260506172512 11 0 0.0 0.0 0.00 0.10 0.00 67 1028.6
20260506172011 11 0 0.0 0.0 0.00 0.10 0.00 66 1028.6
20260506171540 11 0 0.0 0.0 0.00 0.10 0.00 66 1028.5
20260506171011 11 0 0.0 0.0 0.00 0.10 0.00 65 1028.7
20260506170512 11 0 0.0 0.0 0.00 0.10 0.00 65 1028.7
20260506170037 11 0 0.0 0.0 0.00 0.10 0.00 64 1028.7
20260506165509 11 0 0.0 0.0 0.00 0.10 0.00 64 1028.8
20260506165008 11 0 0.0 0.0 0.00 0.10 0.00 64 1028.9
20260506164532 11 0 0.0 0.0 0.00 0.10 0.00 64 1028.8
20260506164010 12 0 0.0 0.0 0.00 0.10 0.00 64 1028.7
20260506163515 12 0 0.0 0.0 0.00 0.10 0.00 64 1028.7
20260506163029 12 0 0.0 4.8 0.00 0.10 0.00 64 1028.8
20260506162511 12 0 0.0 4.8 0.00 0.10 0.00 64 1028.8
20260506162014 12 0 0.0 4.8 0.00 0.10 0.00 64 1028.8
20260506161528 12 256 0.0 4.8 0.00 0.10 0.00 63 1028.6
20260506161012 12 0 1.6 4.8 0.00 0.10 0.00 63 1028.6
20260506160510 12 264 0.0 6.4 0.00 0.10 0.00 63 1028.6
20260506160032 12 265 1.6 12.9 0.00 0.10 0.00 62 1028.5
20260506155508 12 267 1.6 12.9 0.00 0.10 0.00 62 1028.5
20260506155010 12 274 1.6 12.9 0.00 0.10 0.00 62 1028.6
20260506154532 12 239 1.6 8.0 0.00 0.10 0.00 61 1028.5
20260506154012 12 255 1.6 12.9 0.00 0.10 0.00 61 1028.5
20260506153513 12 263 1.6 12.9 0.00 0.10 0.00 61 1028.5
20260506153032 12 135 1.6 6.4 0.00 0.10 0.00 61 1028.5
20260506152509 12 0 0.0 8.0 0.00 0.10 0.00 61 1028.5
20260506152011 12 288 1.6 8.0 0.00 0.10 0.00 61 1028.5
20260506151534 12 292 0.0 11.3 0.00 0.10 0.00 62 1028.5
20260506151014 12 0 1.6 11.3 0.00 0.10 0.00 62 1028.5
20260506150510 12 303 0.0 6.4 0.00 0.10 0.00 62 1028.5
20260506150030 12 0 0.0 6.4 0.00 0.10 0.00 63 1028.4
20260506145514 12 0 0.0 9.7 0.00 0.10 0.00 63 1028.4
20260506145010 12 309 1.6 11.3 0.00 0.10 0.00 63 1028.4
20260506144529 12 165 3.2 11.3 0.00 0.10 0.00 64 1028.5
20260506144015 12 236 0.0 11.3 0.00 0.10 0.00 64 1028.4
20260506143509 12 237 3.2 14.5 0.00 0.10 0.00 64 1028.5
20260506143028 12 246 3.2 14.5 0.00 0.10 0.00 65 1028.5
20260506142513 12 169 1.6 8.0 0.00 0.10 0.10 66 1028.4
20260506142009 12 0 1.6 6.4 0.00 0.10 0.10 67 1028.4
20260506141528 12 208 1.6 4.8 0.00 0.10 0.10 67 1028.4
20260506141009 12 0 0.0 12.9 0.00 0.10 0.10 67 1028.3